N6CTG Weather Reports


Display with metric or nautical units.
time (UTC)temp
F
wind
direction
speed
MPH
gust
MPH
rain 1hr
in
rain 24hr
in
rain mn
in
humidity
%
barometer
mb
20260901152725 71 0 0.0 0.0 0.00 0.00 0.00 59 1012.1
20260901151804 70 0 0.0 0.0 0.00 0.00 0.00 61 1012.0
20260901150904 69 0 0.0 0.0 0.00 0.00 0.00 63 1012.0
20260901150025 68 0 0.0 0.0 0.00 0.00 0.00 65 1012.0
20260901145404 67 0 0.0 0.0 0.00 0.00 0.00 65 1012.0
20260901144504 66 0 0.0 0.0 0.00 0.00 0.00 69 1012.0
20260901143604 64 0 0.0 0.0 0.00 0.00 0.00 71 1012.0
20260901142704 63 0 0.0 0.0 0.00 0.00 0.00 73 1012.0
20260901141825 63 0 0.0 0.0 0.00 0.00 0.00 74 1012.0
20260901140925 56 0 0.0 0.0 0.00 0.00 0.00 80 1012.0
20260901140004 56 0 0.0 0.0 0.00 0.00 0.00 80 1011.9
20260901135425 56 0 0.0 0.0 0.00 0.00 0.00 80 1011.8
20260901134504 56 0 0.0 0.0 0.00 0.00 0.00 80 1011.8
20260901133625 56 0 0.0 0.0 0.00 0.00 0.00 80 1011.6
20260901132725 56 0 0.0 0.0 0.00 0.00 0.00 80 1011.5
20260901131804 56 0 0.0 0.0 0.00 0.00 0.00 80 1011.3
20260901130925 56 0 0.0 0.0 0.00 0.00 0.00 80 1011.3
20260901130004 56 0 0.0 0.0 0.00 0.00 0.00 80 1011.3
20260901125404 56 0 0.0 0.0 0.00 0.00 0.00 80 1011.3
20260901124504 56 0 0.0 0.0 0.00 0.00 0.00 80 1011.2
20260901123604 56 0 0.0 0.0 0.00 0.00 0.00 80 1011.2
20260901122704 56 0 0.0 0.0 0.00 0.00 0.00 80 1011.2
20260901121825 56 0 0.0 0.0 0.00 0.00 0.00 80 1011.1
20260901120904 56 0 0.0 0.0 0.00 0.00 0.00 80 1011.2
20260901120004 56 0 0.0 0.0 0.00 0.00 0.00 80 1011.3
20260901115425 56 0 0.0 0.0 0.00 0.00 0.00 80 1011.2
20260901114504 56 0 0.0 0.0 0.00 0.00 0.00 80 1011.2
20260901113604 56 0 0.0 0.0 0.00 0.00 0.00 80 1011.2
20260901112704 56 0 0.0 0.0 0.00 0.00 0.00 80 1011.1
20260901111804 56 0 0.0 0.0 0.00 0.00 0.00 80 1011.1
20260901110904 56 0 0.0 0.0 0.00 0.00 0.00 80 1011.1
20260901110004 56 0 0.0 0.0 0.00 0.00 0.00 80 1011.1
20260901105404 57 0 0.0 0.0 0.00 0.00 0.00 81 1011.1
20260901104504 58 0 0.0 0.0 0.00 0.00 0.00 81 1011.1
20260901103604 58 0 0.0 0.0 0.00 0.00 0.00 81 1011.1
20260901102704 58 0 0.0 0.0 0.00 0.00 0.00 81 1011.1
20260901101804 58 0 0.0 0.0 0.00 0.00 0.00 81 1011.2
20260901100904 58 0 0.0 0.0 0.00 0.00 0.00 81 1011.1
20260901100004 59 0 0.0 0.0 0.00 0.00 0.00 81 1011.3
20260901095404 59 0 0.0 0.0 0.00 0.00 0.00 81 1011.2
20260901094525 59 0 0.0 0.0 0.00 0.00 0.00 81 1011.2
20260901093604 59 0 0.0 0.0 0.00 0.00 0.00 81 1011.2
20260901092704 60 0 0.0 0.0 0.00 0.00 0.00 80 1011.2
20260901091804 60 0 0.0 0.0 0.00 0.00 0.00 81 1011.2
20260901090904 60 0 0.0 0.0 0.00 0.00 0.00 81 1011.2
20260901090004 60 0 0.0 0.0 0.00 0.00 0.00 81 1011.2
20260901085425 61 0 0.0 0.0 0.00 0.00 0.00 81 1011.1
20260901084504 61 0 0.0 0.0 0.00 0.00 0.00 80 1011.1
20260901083604 61 0 0.0 0.0 0.00 0.00 0.00 80 1011.2
20260901082704 62 0 0.0 0.0 0.00 0.00 0.00 80 1011.3
20260901081804 62 0 0.0 0.0 0.00 0.00 0.00 79 1011.4
20260901080904 62 0 0.0 0.0 0.00 0.00 0.00 79 1011.3
20260901080025 62 0 0.0 0.0 0.00 0.00 0.00 78 1011.3
20260901075404 62 0 0.0 0.0 0.00 0.00 0.00 78 1011.3
20260901074504 62 0 0.0 0.0 0.00 0.00 0.00 78 1011.3
20260901073625 62 0 0.0 0.0 0.00 0.00 0.00 78 1011.2
20260901072704 63 0 0.0 0.0 0.00 0.00 0.00 78 1011.2
20260901071804 63 0 0.0 0.0 0.00 0.00 0.00 77 1011.3
20260901070925 63 0 0.0 0.0 0.00 0.00 0.00 76 1011.2
20260901070004 64 0 0.0 0.0 0.00 0.00 0.00 75 1011.2
20260901065425 64 0 0.0 0.0 0.00 0.00 0.00 75 1011.4
20260901064504 64 0 0.0 0.0 0.00 0.00 0.00 74 1011.3
20260901063604 64 0 0.0 0.0 0.00 0.00 0.00 73 1011.2
20260901062704 65 0 0.0 0.0 0.00 0.00 0.00 73 1011.2
20260901061804 65 0 0.0 0.0 0.00 0.00 0.00 73 1011.2
20260901060925 65 0 0.0 0.0 0.00 0.00 0.00 72 1011.2
20260901060004 66 0 0.0 0.0 0.00 0.00 0.00 72 1011.1
20260901055425 66 0 0.0 0.0 0.00 0.00 0.00 72 1011.1
20260901054504 66 0 0.0 0.0 0.00 0.00 0.00 71 1011.0
20260901053604 66 0 0.0 0.0 0.00 0.00 0.00 71 1011.1
20260901052704 66 0 0.0 0.0 0.00 0.00 0.00 71 1011.1
20260901051804 66 0 0.0 0.0 0.00 0.00 0.00 72 1011.0
20260901050904 67 0 0.0 0.0 0.00 0.00 0.00 74 1010.9
20260901050004 67 0 0.0 0.0 0.00 0.00 0.00 74 1010.8
20260901045404 68 0 0.0 0.0 0.00 0.00 0.00 74 1010.8
20260901044506 68 0 0.0 0.0 0.00 0.00 0.00 74 1010.7
20260901043604 68 0 0.0 0.0 0.00 0.00 0.00 74 1010.9
20260901042704 69 0 0.0 0.0 0.00 0.00 0.00 73 1010.8
20260901041804 69 0 0.0 0.0 0.00 0.00 0.00 73 1011.0
20260901040925 69 0 0.0 0.0 0.00 0.00 0.00 72 1010.9
20260901040025 70 0 0.0 0.0 0.00 0.00 0.00 71 1010.8
20260901035404 70 0 0.0 0.0 0.00 0.00 0.00 71 1010.7
20260901034504 71 0 0.0 0.0 0.00 0.00 0.00 70 1010.6
20260901033604 71 0 0.0 0.0 0.00 0.00 0.00 69 1010.5
20260901032704 72 0 0.0 0.0 0.00 0.00 0.00 68 1010.3
20260901031825 72 237 0.0 2.0 0.00 0.00 0.00 68 1010.2
20260901030904 72 0 0.0 0.0 0.00 0.00 0.00 67 1010.1
20260901030004 73 0 0.0 0.0 0.00 0.00 0.00 64 1010.0
20260901025425 73 248 0.0 1.0 0.00 0.00 0.00 63 1010.0
20260901024525 74 243 0.0 1.0 0.00 0.00 0.00 59 1009.9
20260901023604 74 0 0.0 0.0 0.00 0.00 0.00 57 1009.7
20260901022704 75 252 1.0 3.0 0.00 0.00 0.00 56 1009.6
20260901021825 75 243 2.0 5.0 0.00 0.00 0.00 55 1009.4
20260901020904 76 242 2.0 4.0 0.00 0.00 0.00 52 1009.3
20260901020004 77 238 2.0 4.0 0.00 0.00 0.00 52 1009.2
20260901015425 78 239 3.0 4.0 0.00 0.00 0.00 49 1009.1
20260901014504 79 244 2.0 5.0 0.00 0.00 0.00 45 1009.1
20260901013625 80 253 2.0 5.0 0.00 0.00 0.00 44 1009.0
20260901012704 80 255 3.0 7.0 0.00 0.00 0.00 39 1009.2
20260901011804 80 253 4.0 9.0 0.00 0.00 0.00 37 1009.2
20260901010904 81 244 4.0 8.0 0.00 0.00 0.00 42 1009.2
20260901010004 82 240 4.0 8.0 0.00 0.00 0.00 42 1009.2
20260901005404 82 240 4.0 8.0 0.00 0.00 0.00 38 1009.1
20260901004504 82 253 3.0 8.0 0.00 0.00 0.00 44 1009.1
20260901003625 82 248 4.0 9.0 0.00 0.00 0.00 46 1009.1
20260901002704 82 251 5.0 9.0 0.00 0.00 0.00 47 1009.2
20260901001804 83 243 5.0 9.0 0.00 0.00 0.00 46 1009.2
20260901000925 84 252 4.0 10.0 0.00 0.00 0.00 44 1009.3
20260901000004 84 248 5.0 12.0 0.00 0.00 0.00 43 1009.2
20260831235404 84 244 5.0 10.0 0.00 0.00 0.00 42 1009.2
20260831234504 85 249 4.0 9.0 0.00 0.00 0.00 41 1009.2
20260831233604 85 246 5.0 11.0 0.00 0.00 0.00 41 1009.1
20260831232725 86 249 3.0 7.0 0.00 0.00 0.00 41 1009.0
20260831231804 86 257 4.0 10.0 0.00 0.00 0.00 42 1009.1
20260831230904 86 252 5.0 11.0 0.00 0.00 0.00 41 1009.1
20260831230004 87 260 4.0 8.0 0.00 0.00 0.00 41 1009.1
20260831225404 87 258 4.0 8.0 0.00 0.00 0.00 41 1009.2
20260831224504 87 245 6.0 11.0 0.00 0.00 0.00 41 1009.2
20260831223604 87 257 5.0 11.0 0.00 0.00 0.00 41 1009.3
20260831222725 87 255 6.0 12.0 0.00 0.00 0.00 41 1009.3
20260831221804 87 252 6.0 12.0 0.00 0.00 0.00 41 1009.4
20260831220904 88 260 6.0 12.0 0.00 0.00 0.00 40 1009.4
20260831220004 88 255 4.0 10.0 0.00 0.00 0.00 38 1009.5
20260831215404 88 247 5.0 10.0 0.00 0.00 0.00 37 1009.5
20260831214504 89 245 5.0 11.0 0.00 0.00 0.00 37 1009.4
20260831213604 88 253 4.0 9.0 0.00 0.00 0.00 38 1009.3
20260831212704 88 258 5.0 11.0 0.00 0.00 0.00 40 1009.4
20260831211804 89 244 7.0 12.0 0.00 0.00 0.00 40 1009.6
20260831210904 89 246 6.0 12.0 0.00 0.00 0.00 41 1009.7
20260831210025 90 236 6.0 12.0 0.00 0.00 0.00 40 1009.7
20260831205404 90 237 6.0 12.0 0.00 0.00 0.00 39 1009.8
20260831204504 90 232 4.0 9.0 0.00 0.00 0.00 38 1009.8
20260831203604 90 240 4.0 10.0 0.00 0.00 0.00 38 1009.7
20260831202704 91 214 3.0 10.0 0.00 0.00 0.00 35 1009.8
20260831201804 90 229 4.0 8.0 0.00 0.00 0.00 34 1009.9
20260831200904 90 220 3.0 8.0 0.00 0.00 0.00 32 1009.9
20260831200025 90 231 4.0 10.0 0.00 0.00 0.00 33 1010.0
20260831195404 90 238 2.0 10.0 0.00 0.00 0.00 34 1010.0
20260831194504 90 232 3.0 8.0 0.00 0.00 0.00 33 1010.1
20260831193604 89 229 4.0 10.0 0.00 0.00 0.00 33 1010.2
20260831192704 90 196 1.0 6.0 0.00 0.00 0.00 29 1010.2
20260831191804 89 231 3.0 9.0 0.00 0.00 0.00 31 1010.3
20260831190925 88 256 3.0 8.0 0.00 0.00 0.00 41 1010.3
20260831190004 88 240 4.0 9.0 0.00 0.00 0.00 40 1010.4
20260831185425 88 226 3.0 9.0 0.00 0.00 0.00 39 1010.4
20260831184504 88 239 3.0 10.0 0.00 0.00 0.00 36 1010.4
20260831183604 87 228 4.0 10.0 0.00 0.00 0.00 32 1010.5
20260831182725 87 197 3.0 6.0 0.00 0.00 0.00 33 1010.5
20260831181804 87 233 2.0 7.0 0.00 0.00 0.00 29 1010.6
20260831180925 86 234 4.0 8.0 0.00 0.00 0.00 29 1010.5
20260831180004 86 234 3.0 8.0 0.00 0.00 0.00 25 1010.5
20260831175404 86 226 3.0 6.0 0.00 0.00 0.00 29 1010.3
20260831174504 85 168 2.0 6.0 0.00 0.00 0.00 33 1010.4
20260831173604 84 181 2.0 6.0 0.00 0.00 0.00 35 1010.4
20260831172704 83 218 2.0 6.0 0.00 0.00 0.00 38 1010.5
20260831171804 82 184 2.0 5.0 0.00 0.00 0.00 37 1010.4
20260831170904 81 210 2.0 5.0 0.00 0.00 0.00 42 1010.3
20260831170004 80 228 2.0 5.0 0.00 0.00 0.00 50 1010.2
20260831165404 79 222 2.0 5.0 0.00 0.00 0.00 50 1010.2
20260831164504 78 226 3.0 6.0 0.00 0.00 0.00 57 1010.2
20260831163604 78 233 2.0 6.0 0.00 0.00 0.00 61 1010.2
20260831162704 77 160 0.0 3.0 0.00 0.00 0.00 67 1010.2
20260831161804 75 217 2.0 4.0 0.00 0.00 0.00 69 1010.2
20260831160904 75 226 0.0 4.0 0.00 0.00 0.00 70 1010.3
20260831160004 74 214 0.0 2.0 0.00 0.00 0.00 70 1010.3
20260831155404 74 0 0.0 0.0 0.00 0.00 0.00 73 1010.3
20260831154504 73 0 0.0 0.0 0.00 0.00 0.00 74 1010.3
20260831153625 72 0 0.0 0.0 0.00 0.00 0.00 72 1010.2